STARLINK-5829 (56347 NORAD) Tracking and Keplerian Element Data

This shows tracking and keplerian element data for the satellite.

Feedback or suggestion? Click here.




ElementValue
Catalog56347
NameSTARLINK-5829
Epoch Orbit181
Epoch Day127.00001157
Epoch Year2023
RAAN126.4749
Inclination97.6636
Eccentricity0.0001354
Argument of Perigee92.7704
Mean Anonmoly238.7906
Mean Motion15.68228204
Decay Rate-0.00870554
L11 56347U 23058AG 23127.00001157 -.00870554 00000+0 -86676-2 0 9997
L22 56347 97.6636 126.4749 0001354 92.7704 238.7906 15.68228204 1812



Live tracking and technical data element details for STARLINK-5829 (NORAD 56347). STARLINK-5829 can be tracked NOW for your location showing map with azimuth and elevation plus other details from your city location.







IsCatalogInMostPopularTable: catalog: 56347, numindb: 4
Update: records affected: 1



GetName: 56347 STARLINK-5829

Hit Count: updated at: Mon, 05 Jun 2023 01:12:41 GMT